Location: Cannifist
(18.2333°N, 63.0167°W)
Time: 14:38:27
(UTC+00:00)

Palapa 6 Rocket - Pass Details

Date: 27 February 2020
Orbit: 484 x 1218 km, 22.7° (Epoch: 06 April)

Event Time Altitude Azimuth Distance (km) Brightness Sun altitude
Rises 22:30:15 0° 223° (SW) 2,523 7.1 -3.9°
Reaches altitude 10° 22:32:45 10° 206° (SSW) 1,663 5.8 -4.5°
Maximum altitude 22:35:41 21° 155° (SSE) 1,166 4.3 -5.1°
Drops below altitude 10° 22:38:50 10° 104° (ESE) 1,800 4.9 -5.9°
Enters shadow 22:39:45 - 98° (E) 2,109 5.2 -6.1°
